^^
Saratoga-Weather Station Historical Data
Daily Summary for November 23, 2020 Units:  English    Metric   Both
Daily Weekly Monthly Yearly Custom
  High: Low: Average:
Temperature: 47.7 °F 41.2 °F 44.4 °F
Dew Point: 45 °F 39 °F 41.9 °F
Humidity: 97% 83% 91%
Wind Speed: 7mph 0mph 0.3mph
Wind Gust: 8mph - -
Wind- - SW
Pressure: 30.4 in 30.3 in -
Precipitation: 0 in    
Historical Graphs
 
 
Tabular Data for November 23, 2020
Time Temperature Dew Point Pressure Wind Wind Speed Wind Gust Humidity Rainfall Rate (Hourly) solar
00:01 43.2 °F 39.2 °F 30.3 in Calm   1 mph 86% 0 in 0 W/m2
00:06 43.2 °F 39.2 °F 30.3 in Calm   1 mph 86% 0 in 0 W/m2
00:11 43.2 °F 39.2 °F 30.4 in Calm     86% 0 in 0 W/m2
00:16 43.2 °F 39.2 °F 30.3 in Calm   1 mph 86% 0 in 0 W/m2
00:21 43.2 °F 39.6 °F 30.4 in Calm     87% 0 in 0 W/m2
00:26 43.2 °F 39.6 °F 30.4 in Calm     87% 0 in 0 W/m2
00:31 43.2 °F 39.6 °F 30.4 in Calm     87% 0 in 0 W/m2
00:36 43 °F 39.4 °F 30.4 in Calm     87% 0 in 0 W/m2
00:41 43 °F 39.4 °F 30.4 in Calm     87% 0 in 0 W/m2
00:46 43 °F 39.4 °F 30.3 in Calm     87% 0 in 0 W/m2
00:51 43 °F 39.7 °F 30.4 in Calm     88% 0 in 0 W/m2
00:56 43 °F 39.7 °F 30.3 in Calm     88% 0 in 0 W/m2
01:01 43 °F 39.7 °F 30.4 in Calm     88% 0 in 0 W/m2
01:06 43 °F 39.7 °F 30.4 in Calm     88% 0 in 0 W/m2
01:11 43 °F 39.7 °F 30.4 in Calm     88% 0 in 0 W/m2
01:16 43 °F 39.7 °F 30.3 in Calm     88% 0 in 0 W/m2
01:22 43 °F 39.9 °F 30.4 in Calm     89% 0 in 0 W/m2
01:27 43 °F 39.9 °F 30.4 in Calm     89% 0 in 0 W/m2
01:32 43 °F 39.9 °F 30.3 in Calm     89% 0 in 0 W/m2
01:37 43 °F 39.9 °F 30.4 in Calm     89% 0 in 0 W/m2
01:42 43 °F 39.9 °F 30.3 in Calm   2 mph 89% 0 in 0 W/m2
01:47 43 °F 39.9 °F 30.3 in Calm   1 mph 89% 0 in 0 W/m2
01:52 43 °F 39.9 °F 30.3 in Calm   1 mph 89% 0 in 0 W/m2
01:57 43.2 °F 40.1 °F 30.3 in Calm     89% 0 in 0 W/m2
02:02 43.2 °F 39.9 °F 30.3 in NE 2.9 mph 3 mph 88% 0 in 0 W/m2
02:07 43.3 °F 40.1 °F 30.4 in NE 0.9 mph 1 mph 88% 0 in 0 W/m2
02:12 43.3 °F 40.1 °F 30.3 in Calm     88% 0 in 0 W/m2
02:17 43.3 °F 40.1 °F 30.3 in Calm   2 mph 88% 0 in 0 W/m2
02:22 43.3 °F 39.7 °F 30.3 in Calm     87% 0 in 0 W/m2
02:27 43.5 °F 39.9 °F 30.3 in Calm   2 mph 87% 0 in 0 W/m2
02:32 43.5 °F 39.9 °F 30.3 in Calm   1 mph 87% 0 in 0 W/m2
02:37 43.5 °F 39.6 °F 30.3 in Calm   3 mph 86% 0 in 0 W/m2
02:42 43.7 °F 39.7 °F 30.3 in Calm     86% 0 in 0 W/m2
02:47 43.7 °F 39.7 °F 30.3 in ESE 0.9 mph 3 mph 86% 0 in 0 W/m2
02:52 43.9 °F 39.9 °F 30.3 in Calm   2 mph 86% 0 in 0 W/m2
02:57 43.9 °F 39.7 °F 30.3 in Calm     85% 0 in 0 W/m2
03:02 43.9 °F 39.7 °F 30.3 in Calm   2 mph 85% 0 in 0 W/m2
03:07 43.9 °F 39.4 °F 30.3 in WNW 2 mph 2 mph 84% 0 in 0 W/m2
03:12 44.1 °F 39.2 °F 30.3 in WNW 2 mph 3 mph 83% 0 in 0 W/m2
03:17 44.1 °F 39.2 °F 30.4 in Calm   1 mph 83% 0 in 0 W/m2
03:22 44.1 °F 39.6 °F 30.3 in Calm     84% 0 in 0 W/m2
03:27 43.9 °F 39.4 °F 30.3 in West 0.9 mph 1 mph 84% 0 in 0 W/m2
03:32 43.9 °F 39 °F 30.3 in WSW 0.9 mph 4 mph 83% 0 in 0 W/m2
03:37 43.9 °F 39 °F 30.3 in Calm     83% 0 in 0 W/m2
03:42 43.9 °F 39 °F 30.3 in Calm   2 mph 83% 0 in 0 W/m2
03:47 43.9 °F 39 °F 30.3 in Calm   1 mph 83% 0 in 0 W/m2
03:52 43.9 °F 39 °F 30.3 in WNW 2 mph 3 mph 83% 0 in 0 W/m2
03:57 43.9 °F 39 °F 30.3 in Calm   1 mph 83% 0 in 0 W/m2
04:02 43.9 °F 39 °F 30.3 in WSW 6.9 mph 8 mph 83% 0 in 0 W/m2
04:07 43.9 °F 39 °F 30.3 in SW 2.9 mph 4 mph 83% 0 in 0 W/m2
04:12 43.9 °F 39.4 °F 30.3 in West 7 mph 7 mph 84% 0 in 0 W/m2
04:17 43.9 °F 39.7 °F 30.3 in West 0.9 mph 2 mph 85% 0 in 0 W/m2
04:22 43.9 °F 39.7 °F 30.3 in WNW 0.9 mph 4 mph 85% 0 in 0 W/m2
04:27 43.9 °F 39.4 °F 30.3 in Calm   3 mph 84% 0 in 0 W/m2
04:32 43.9 °F 39.4 °F 30.3 in Calm   1 mph 84% 0 in 0 W/m2
04:37 43.9 °F 39.4 °F 30.3 in Calm   1 mph 84% 0 in 0 W/m2
04:42 43.9 °F 39.4 °F 30.3 in NW 0.9 mph 1 mph 84% 0 in 0 W/m2
04:47 43.9 °F 39.7 °F 30.3 in Calm   3 mph 85% 0 in 0 W/m2
04:52 43.9 °F 39.7 °F 30.3 in Calm     85% 0 in 0 W/m2
04:57 43.7 °F 39.2 °F 30.3 in Calm     84% 0 in 0 W/m2
05:02 43.7 °F 39.6 °F 30.3 in Calm     85% 0 in 0 W/m2
05:07 43.7 °F 39.6 °F 30.3 in Calm   1 mph 85% 0 in 0 W/m2
05:12 43.7 °F 39.2 °F 30.3 in Calm     84% 0 in 0 W/m2
05:18 43.5 °F 39 °F 30.4 in Calm     84% 0 in 0 W/m2
05:23 43.5 °F 39 °F 30.4 in Calm     84% 0 in 0 W/m2
05:28 43.5 °F 39 °F 30.4 in Calm     84% 0 in 0 W/m2
05:33 43.5 °F 39.4 °F 30.4 in Calm     85% 0 in 0 W/m2
05:38 43.5 °F 39.4 °F 30.3 in Calm     85% 0 in 0 W/m2
05:43 43.5 °F 39.4 °F 30.3 in Calm     85% 0 in 0 W/m2
05:48 43.5 °F 39.6 °F 30.3 in Calm     86% 0 in 0 W/m2
05:53 43.5 °F 39.6 °F 30.3 in Calm     86% 0 in 0 W/m2
05:58 43.3 °F 39.4 °F 30.3 in Calm     86% 0 in 0 W/m2
06:03 43.3 °F 39.4 °F 30.3 in Calm     86% 0 in 0 W/m2
06:08 43.3 °F 39.4 °F 30.4 in Calm     86% 0 in 0 W/m2
06:13 43.3 °F 39.4 °F 30.4 in Calm     86% 0 in 0 W/m2
06:18 43.3 °F 39.4 °F 30.3 in Calm     86% 0 in 0 W/m2
06:23 43.3 °F 39.4 °F 30.3 in Calm     86% 0 in 0 W/m2
06:28 43.3 °F 39.4 °F 30.3 in Calm   1 mph 86% 0 in 0 W/m2
06:33 43.3 °F 39.2 °F 30.4 in NNW 2 mph 2 mph 85% 0 in 0 W/m2
06:38 43.5 °F 39.4 °F 30.4 in Calm     85% 0 in 0 W/m2
06:43 43.5 °F 39 °F 30.4 in Calm     84% 0 in 0 W/m2
06:48 43.5 °F 39.4 °F 30.4 in Calm     85% 0 in 0 W/m2
06:53 43.5 °F 39.4 °F 30.4 in Calm     85% 0 in 0 W/m2
06:58 43.5 °F 39.6 °F 30.4 in Calm     86% 0 in 0 W/m2
07:03 43.5 °F 39.6 °F 30.4 in Calm     86% 0 in 0 W/m2
07:08 43.5 °F 39.6 °F 30.4 in Calm     86% 0 in 0 W/m2
07:13 43.5 °F 39.6 °F 30.4 in Calm     86% 0 in 0 W/m2
07:18 43.5 °F 39.6 °F 30.4 in WNW 0.9 mph 2 mph 86% 0 in 0 W/m2
07:23 43.5 °F 39.6 °F 30.4 in Calm   1 mph 86% 0 in 0 W/m2
07:28 43.5 °F 39.9 °F 30.4 in WNW 0.9 mph 2 mph 87% 0 in 0 W/m2
07:33 43.3 °F 39.7 °F 30.4 in Calm   2 mph 87% 0 in 0 W/m2
07:38 43.3 °F 40.1 °F 30.4 in NNW 2 mph 3 mph 88% 0 in 0 W/m2
07:43 43.3 °F 40.3 °F 30.4 in NW 0.9 mph 2 mph 89% 0 in 0 W/m2
07:48 43.2 °F 40.1 °F 30.4 in NNW 0.9 mph 3 mph 89% 0 in 0 W/m2
07:53 43.2 °F 40.5 °F 30.4 in NNW 2 mph 2 mph 90% 0 in 0 W/m2
07:58 43 °F 40.5 °F 30.4 in Calm   3 mph 91% 0 in 0 W/m2
08:03 43 °F 40.5 °F 30.4 in North 0.9 mph 2 mph 91% 0 in 0 W/m2
08:08 42.8 °F 40.3 °F 30.4 in Calm     91% 0 in 0 W/m2
08:13 42.8 °F 40.6 °F 30.4 in Calm   1 mph 92% 0 in 0 W/m2
08:18 42.8 °F 40.6 °F 30.4 in Calm   1 mph 92% 0 in 0 W/m2
08:23 42.8 °F 40.6 °F 30.4 in Calm     92% 0 in 0 W/m2
08:28 42.8 °F 40.6 °F 30.4 in Calm     92% 0 in 7 W/m2
08:33 42.8 °F 40.6 °F 30.4 in Calm     92% 0 in 9 W/m2
08:38 42.8 °F 41 °F 30.4 in Calm     93% 0 in 9 W/m2
08:43 42.8 °F 41 °F 30.4 in North 0.9 mph 2 mph 93% 0 in 11 W/m2
08:48 43 °F 41.2 °F 30.4 in NW 0.9 mph 2 mph 93% 0 in 14 W/m2
08:53 43 °F 41.2 °F 30.4 in Calm   2 mph 93% 0 in 19 W/m2
08:58 43.2 °F 41.4 °F 30.4 in Calm   2 mph 93% 0 in 26 W/m2
09:03 43.2 °F 41.4 °F 30.4 in Calm   1 mph 93% 0 in 19 W/m2
09:08 43.2 °F 41.4 °F 30.4 in NE 0.9 mph 1 mph 93% 0 in 18 W/m2
09:13 43.3 °F 41.5 °F 30.4 in Calm   2 mph 93% 0 in 18 W/m2
09:18 43.3 °F 41.5 °F 30.4 in Calm     93% 0 in 21 W/m2
09:23 43.3 °F 41.5 °F 30.4 in Calm   2 mph 93% 0 in 19 W/m2
09:28 43.5 °F 41.7 °F 30.4 in Calm   2 mph 93% 0 in 26 W/m2
09:33 43.5 °F 41.7 °F 30.4 in Calm   2 mph 93% 0 in 32 W/m2
09:38 43.5 °F 41.7 °F 30.4 in Calm   1 mph 93% 0 in 37 W/m2
09:43 43.7 °F 41.7 °F 30.4 in Calm     93% 0 in 28 W/m2
09:48 43.9 °F 41.9 °F 30.4 in Calm     93% 0 in 37 W/m2
09:53 43.9 °F 41.9 °F 30.4 in Calm     93% 0 in 54 W/m2
09:58 44.1 °F 42.1 °F 30.4 in Calm     93% 0 in 46 W/m2
10:03 44.1 °F 42.1 °F 30.4 in Calm     93% 0 in 49 W/m2
10:08 44.2 °F 42.3 °F 30.4 in Calm     93% 0 in 60 W/m2
10:13 44.2 °F 42.3 °F 30.4 in Calm   1 mph 93% 0 in 67 W/m2
10:18 44.4 °F 42.4 °F 30.4 in Calm     93% 0 in 83 W/m2
10:23 44.4 °F 42.4 °F 30.4 in Calm   1 mph 93% 0 in 93 W/m2
10:28 44.8 °F 42.6 °F 30.4 in Calm   2 mph 92% 0 in 102 W/m2
10:33 45 °F 42.8 °F 30.4 in WNW 2 mph 2 mph 92% 0 in 95 W/m2
10:38 45.1 °F 43 °F 30.4 in Calm   1 mph 92% 0 in 74 W/m2
10:43 45.3 °F 43.2 °F 30.4 in NW 2 mph 3 mph 92% 0 in 77 W/m2
10:48 45.3 °F 43.2 °F 30.4 in NW 0.9 mph 1 mph 92% 0 in 98 W/m2
10:53 45.5 °F 43.3 °F 30.4 in NW 3 mph 3 mph 92% 0 in 102 W/m2
10:58 45.7 °F 43.5 °F 30.4 in NW 0.9 mph 3 mph 92% 0 in 81 W/m2
11:03 45.7 °F 43.5 °F 30.4 in Calm   2 mph 92% 0 in 81 W/m2
11:08 45.7 °F 43.5 °F 30.4 in North 0.9 mph 1 mph 92% 0 in 109 W/m2
11:13 45.9 °F 43.3 °F 30.4 in Calm   1 mph 91% 0 in 95 W/m2
11:18 45.9 °F 43.3 °F 30.4 in NW 2.9 mph 3 mph 91% 0 in 102 W/m2
11:23 46 °F 43.5 °F 30.4 in NW 2.9 mph 4 mph 91% 0 in 91 W/m2
11:28 46 °F 43.5 °F 30.4 in NW 0.9 mph 3 mph 91% 0 in 90 W/m2
11:33 46 °F 43.5 °F 30.4 in Calm   1 mph 91% 0 in 84 W/m2
11:38 46 °F 43.5 °F 30.4 in Calm   2 mph 91% 0 in 97 W/m2
11:43 46.2 °F 43.7 °F 30.4 in Calm   1 mph 91% 0 in 128 W/m2
11:48 46.2 °F 43.7 °F 30.4 in Calm     91% 0 in 142 W/m2
11:53 46.6 °F 44.1 °F 30.4 in Calm     91% 0 in 155 W/m2
11:58 46.8 °F 44.2 °F 30.4 in East 2 mph 4 mph 91% 0 in 244 W/m2
12:03 47.1 °F 44.6 °F 30.4 in NW 2 mph 3 mph 91% 0 in 287 W/m2
12:08 47.5 °F 45 °F 30.4 in Calm   1 mph 91% 0 in 250 W/m2
12:13 47.7 °F 45 °F 30.4 in West 2.9 mph 3 mph 90% 0 in 88 W/m2
12:18 47.7 °F 44.6 °F 30.4 in West 0.9 mph 3 mph 89% 0 in 83 W/m2
12:23 47.5 °F 44.4 °F 30.4 in WNW 0.9 mph 2 mph 89% 0 in 70 W/m2
12:28 47.5 °F 44.4 °F 30.4 in NW 0.9 mph 3 mph 89% 0 in 65 W/m2
12:33 47.5 °F 44.4 °F 30.4 in WNW 2.9 mph 3 mph 89% 0 in 67 W/m2
12:39 47.5 °F 44.4 °F 30.4 in NW 2 mph 2 mph 89% 0 in 70 W/m2
12:44 47.5 °F 44.4 °F 30.4 in NW 0.9 mph 3 mph 89% 0 in 69 W/m2
12:49 47.5 °F 44.8 °F 30.4 in Calm     90% 0 in 67 W/m2
12:54 47.5 °F 44.8 °F 30.4 in WNW 0.9 mph 2 mph 90% 0 in 72 W/m2
12:59 47.5 °F 44.4 °F 30.4 in WNW 2 mph 4 mph 89% 0 in 67 W/m2
13:04 47.3 °F 44.2 °F 30.4 in WNW 0.9 mph 2 mph 89% 0 in 67 W/m2
13:09 47.3 °F 44.2 °F 30.4 in WNW 2 mph 4 mph 89% 0 in 67 W/m2
13:14 47.1 °F 44.4 °F 30.4 in Calm   2 mph 90% 0 in 60 W/m2
13:19 47.3 °F 44.6 °F 30.4 in Calm   1 mph 90% 0 in 76 W/m2
13:24 47.3 °F 44.6 °F 30.4 in Calm   1 mph 90% 0 in 86 W/m2
13:29 47.3 °F 44.6 °F 30.4 in Calm   2 mph 90% 0 in 74 W/m2
13:34 47.3 °F 44.6 °F 30.4 in Calm     90% 0 in 70 W/m2
13:39 47.5 °F 44.8 °F 30.4 in Calm   2 mph 90% 0 in 69 W/m2
13:44 47.5 °F 44.8 °F 30.4 in Calm   1 mph 90% 0 in 53 W/m2
13:49 47.5 °F 44.8 °F 30.4 in Calm     90% 0 in 42 W/m2
13:54 47.5 °F 44.8 °F 30.4 in Calm   1 mph 90% 0 in 47 W/m2
13:59 47.5 °F 44.8 °F 30.4 in Calm     90% 0 in 49 W/m2
14:04 47.5 °F 44.8 °F 30.4 in Calm   1 mph 90% 0 in 53 W/m2
14:09 47.5 °F 44.8 °F 30.4 in Calm   1 mph 90% 0 in 51 W/m2
14:14 47.7 °F 45 °F 30.4 in Calm   1 mph 90% 0 in 51 W/m2
14:19 47.7 °F 45 °F 30.4 in Calm   3 mph 90% 0 in 53 W/m2
14:24 47.7 °F 45 °F 30.4 in Calm     90% 0 in 56 W/m2
14:29 47.7 °F 45 °F 30.4 in NE 2 mph 3 mph 90% 0 in 58 W/m2
14:34 47.7 °F 45 °F 30.4 in NE 0.9 mph 2 mph 90% 0 in 42 W/m2
14:39 47.7 °F 45 °F 30.4 in Calm   2 mph 90% 0 in 37 W/m2
14:44 47.7 °F 45 °F 30.4 in Calm   3 mph 90% 0 in 35 W/m2
14:49 47.7 °F 45 °F 30.4 in Calm   2 mph 90% 0 in 25 W/m2
14:54 47.7 °F 45 °F 30.4 in ENE 2.9 mph 3 mph 90% 0 in 25 W/m2
14:59 47.7 °F 45 °F 30.4 in ENE 0.9 mph 3 mph 90% 0 in 23 W/m2
15:04 47.5 °F 44.8 °F 30.4 in Calm   3 mph 90% 0 in 28 W/m2
15:09 47.3 °F 44.6 °F 30.4 in Calm   1 mph 90% 0 in 25 W/m2
15:14 47.1 °F 44.6 °F 30.4 in ENE 2 mph 3 mph 91% 0 in 30 W/m2
15:19 47.1 °F 44.6 °F 30.4 in East 0.9 mph 2 mph 91% 0 in 25 W/m2
15:24 46.9 °F 44.4 °F 30.4 in Calm   3 mph 91% 0 in 28 W/m2
15:29 46.9 °F 44.8 °F 30.4 in Calm     92% 0 in 28 W/m2
15:34 46.9 °F 44.8 °F 30.4 in Calm   3 mph 92% 0 in 25 W/m2
15:39 46.9 °F 44.8 °F 30.4 in East 2 mph 3 mph 92% 0 in 19 W/m2
15:44 46.8 °F 44.6 °F 30.4 in Calm   2 mph 92% 0 in 18 W/m2
15:49 46.8 °F 44.8 °F 30.4 in ENE 0.9 mph 2 mph 93% 0 in 14 W/m2
15:54 46.8 °F 44.8 °F 30.4 in Calm   2 mph 93% 0 in 12 W/m2
15:59 46.6 °F 44.6 °F 30.4 in NE 0.9 mph 1 mph 93% 0 in 12 W/m2
16:04 46.6 °F 44.6 °F 30.4 in Calm     93% 0 in 9 W/m2
16:09 46.4 °F 44.8 °F 30.4 in Calm   2 mph 94% 0 in 7 W/m2
16:14 46.2 °F 44.6 °F 30.4 in Calm     94% 0 in 5 W/m2
16:19 46.2 °F 44.6 °F 30.4 in NE 0.9 mph 2 mph 94% 0 in 5 W/m2
16:24 46.2 °F 44.6 °F 30.4 in Calm     94% 0 in 5 W/m2
16:29 46 °F 44.4 °F 30.4 in Calm   2 mph 94% 0 in 5 W/m2
16:34 46 °F 44.4 °F 30.4 in Calm     94% 0 in 0 W/m2
16:39 46 °F 44.4 °F 30.4 in Calm     94% 0 in 0 W/m2
16:44 46 °F 44.4 °F 30.4 in Calm   1 mph 94% 0 in 0 W/m2
16:49 45.9 °F 44.4 °F 30.4 in Calm   1 mph 95% 0 in 0 W/m2
16:54 45.9 °F 44.4 °F 30.4 in Calm     95% 0 in 0 W/m2
16:59 45.9 °F 44.4 °F 30.4 in Calm   1 mph 95% 0 in 0 W/m2
17:04 45.9 °F 44.4 °F 30.4 in Calm     95% 0 in 0 W/m2
17:09 45.7 °F 44.4 °F 30.4 in Calm     95% 0 in 0 W/m2
17:14 45.7 °F 44.4 °F 30.4 in Calm     95% 0 in 0 W/m2
17:19 45.7 °F 44.4 °F 30.4 in Calm     95% 0 in 0 W/m2
17:24 45.7 °F 44.4 °F 30.4 in Calm     95% 0 in 0 W/m2
17:29 45.7 °F 44.4 °F 30.4 in Calm     95% 0 in 0 W/m2
17:34 45.7 °F 44.4 °F 30.4 in Calm     95% 0 in 0 W/m2
17:39 45.7 °F 44.4 °F 30.4 in Calm     95% 0 in 0 W/m2
17:44 45.7 °F 44.4 °F 30.4 in Calm     95% 0 in 0 W/m2
17:49 45.7 °F 44.4 °F 30.4 in Calm     95% 0 in 0 W/m2
17:54 45.7 °F 44.4 °F 30.4 in Calm     95% 0 in 0 W/m2
17:59 45.7 °F 44.4 °F 30.4 in Calm     95% 0 in 0 W/m2
18:04 45.7 °F 44.4 °F 30.4 in Calm     95% 0 in 0 W/m2
18:09 45.7 °F 44.4 °F 30.4 in Calm     95% 0 in 0 W/m2
18:14 45.7 °F 44.4 °F 30.4 in Calm     95% 0 in 0 W/m2
18:19 45.7 °F 44.4 °F 30.4 in Calm     95% 0 in 0 W/m2
18:24 45.7 °F 44.4 °F 30.4 in Calm     95% 0 in 0 W/m2
18:29 45.7 °F 44.4 °F 30.4 in Calm     95% 0 in 0 W/m2
18:34 45.7 °F 44.4 °F 30.4 in Calm     95% 0 in 0 W/m2
18:39 45.5 °F 44.2 °F 30.4 in Calm     95% 0 in 0 W/m2
18:44 45.5 °F 44.2 °F 30.4 in Calm     95% 0 in 0 W/m2
18:49 45.3 °F 44.1 °F 30.4 in Calm     95% 0 in 0 W/m2
18:54 45.3 °F 44.1 °F 30.4 in Calm     95% 0 in 0 W/m2
18:59 45.1 °F 43.9 °F 30.4 in Calm     95% 0 in 0 W/m2
19:04 45 °F 43.3 °F 30.4 in Calm     94% 0 in 0 W/m2
19:09 44.8 °F 43.2 °F 30.4 in Calm     94% 0 in 0 W/m2
19:14 44.6 °F 43 °F 30.4 in Calm     94% 0 in 0 W/m2
19:19 44.4 °F 42.8 °F 30.4 in Calm     94% 0 in 0 W/m2
19:24 44.2 °F 42.6 °F 30.4 in Calm     94% 0 in 0 W/m2
19:29 44.1 °F 42.4 °F 30.4 in Calm     94% 0 in 0 W/m2
19:34 43.9 °F 42.3 °F 30.4 in Calm     94% 0 in 0 W/m2
19:39 43.5 °F 41.9 °F 30.4 in Calm     94% 0 in 0 W/m2
19:44 43.3 °F 41.7 °F 30.4 in Calm     94% 0 in 0 W/m2
19:49 43 °F 41.4 °F 30.4 in Calm     94% 0 in 0 W/m2
19:54 42.8 °F 41.2 °F 30.4 in Calm     94% 0 in 0 W/m2
19:59 42.6 °F 41 °F 30.4 in Calm     94% 0 in 0 W/m2
20:04 42.4 °F 40.8 °F 30.4 in Calm     94% 0 in 0 W/m2
20:10 42.3 °F 40.6 °F 30.4 in Calm     94% 0 in 0 W/m2
20:15 42.3 °F 41 °F 30.4 in Calm     95% 0 in 0 W/m2
20:20 42.1 °F 40.8 °F 30.4 in Calm     95% 0 in 0 W/m2
20:25 41.9 °F 40.6 °F 30.4 in Calm     95% 0 in 0 W/m2
20:30 41.7 °F 40.5 °F 30.4 in Calm     95% 0 in 0 W/m2
20:35 41.5 °F 40.3 °F 30.4 in Calm     95% 0 in 0 W/m2
20:40 41.5 °F 40.3 °F 30.4 in Calm     95% 0 in 0 W/m2
20:45 41.5 °F 40.3 °F 30.4 in Calm     95% 0 in 0 W/m2
20:50 41.4 °F 40.1 °F 30.4 in Calm     95% 0 in 0 W/m2
20:55 41.4 °F 40.1 °F 30.4 in Calm     95% 0 in 0 W/m2
21:00 41.2 °F 39.9 °F 30.4 in Calm     95% 0 in 0 W/m2
21:05 41.2 °F 39.9 °F 30.4 in Calm     95% 0 in 0 W/m2
21:10 41.2 °F 39.9 °F 30.4 in Calm     95% 0 in 0 W/m2
21:15 41.2 °F 39.9 °F 30.4 in Calm     95% 0 in 0 W/m2
21:20 41.2 °F 39.9 °F 30.4 in Calm     95% 0 in 0 W/m2
21:25 41.2 °F 40.1 °F 30.4 in Calm     96% 0 in 0 W/m2
21:30 41.4 °F 40.3 °F 30.4 in Calm     96% 0 in 0 W/m2
21:35 41.4 °F 40.3 °F 30.4 in Calm     96% 0 in 0 W/m2
21:40 41.5 °F 40.5 °F 30.4 in Calm     96% 0 in 0 W/m2
21:45 41.5 °F 40.5 °F 30.4 in Calm     96% 0 in 0 W/m2
21:50 41.9 °F 40.8 °F 30.4 in Calm     96% 0 in 0 W/m2
21:55 42.3 °F 41.2 °F 30.4 in Calm     96% 0 in 0 W/m2
22:00 42.4 °F 41.4 °F 30.4 in Calm     96% 0 in 0 W/m2
22:05 42.8 °F 42.1 °F 30.4 in Calm     97% 0 in 0 W/m2
22:10 43 °F 42.3 °F 30.4 in Calm     97% 0 in 0 W/m2
22:15 43.2 °F 42.1 °F 30.4 in Calm     96% 0 in 0 W/m2
22:20 43.2 °F 42.1 °F 30.4 in Calm     96% 0 in 0 W/m2
22:25 43.2 °F 42.1 °F 30.4 in Calm     96% 0 in 0 W/m2
22:30 43.3 °F 42.3 °F 30.4 in Calm     96% 0 in 0 W/m2
22:35 43.3 °F 42.3 °F 30.4 in Calm     96% 0 in 0 W/m2
22:40 43.3 °F 42.3 °F 30.4 in Calm     96% 0 in 0 W/m2
22:45 43.5 °F 42.4 °F 30.4 in Calm     96% 0 in 0 W/m2
22:50 43.5 °F 42.4 °F 30.4 in Calm     96% 0 in 0 W/m2
22:55 43.5 °F 42.4 °F 30.4 in Calm     96% 0 in 0 W/m2
23:00 43.5 °F 42.4 °F 30.4 in Calm     96% 0 in 0 W/m2
23:05 43.3 °F 42.3 °F 30.4 in Calm     96% 0 in 0 W/m2
23:10 43.5 °F 42.4 °F 30.4 in Calm     96% 0 in 0 W/m2
23:15 43.5 °F 42.4 °F 30.4 in Calm     96% 0 in 0 W/m2
23:20 43.5 °F 42.4 °F 30.4 in Calm     96% 0 in 0 W/m2
23:25 43.5 °F 42.4 °F 30.4 in Calm     96% 0 in 0 W/m2
23:30 43.5 °F 42.4 °F 30.4 in Calm     96% 0 in 0 W/m2
23:35 43.3 °F 42.3 °F 30.4 in Calm     96% 0 in 0 W/m2
23:40 43.3 °F 42.3 °F 30.4 in Calm   2 mph 96% 0 in 0 W/m2
23:45 43.3 °F 42.3 °F 30.4 in Calm     96% 0 in 0 W/m2
23:50 43.2 °F 42.1 °F 30.4 in Calm   2 mph 96% 0 in 0 W/m2
23:55 43.2 °F 42.1 °F 30.4 in Calm     96% 0 in 0 W/m2
Juneau County Weather
Compliments of Weather Underground - 4 mb